This demonstration page uses our WeatherBlox Daily Observations layout. Learn more.

Left ArrowRight Arrow

34.02893, -84.19858

Hourly Observations for February 7, 2022

Temp ( °F °C ) Dew Point ( °F °C ) Humidity (%) Winds ( mph kmh ) Pressure ( in mb ) Visibility ( mi km ) Precip ( " mm )
12:09 am 00:09 Cloudy 43 6.1 24 -4.4 47 47 VRB 5 7 30.30 1026 10 16 0.00 0.00
12:53 am 00:53 Cloudy 44 6.7 24 -4.4 45 45 VRB 3 6 30.28 1025 10 16 0.00 0.00
1:53 am 01:53 Cloudy 43 6.1 24 -4.4 47 47 NE 6 9 30.27 1025 10 16 0.00 0.00
2:53 am 02:53 Cloudy 43 6.1 25 -3.9 49 49 undefined N/A 30.25 1024 10 16 0.00 0.00
3:53 am 03:53 Cloudy 43 6.1 24 -4.4 47 47 NE 6 9 30.23 1024 10 16 0.00 0.00
4:53 am 04:53 Cloudy 42 5.6 23 -5 47 47 NNE 7 11 30.23 1024 10 16 0.00 0.00
5:53 am 05:53 Cloudy 42 5.6 23 -5 47 47 NE 7 11 30.22 1024 10 16 0.00 0.00
6:53 am 06:53 Cloudy 42 5.6 24 -4.4 49 49 Calm 30.20 1023 10 16 0.00 0.00
7:53 am 07:53 Cloudy 42 5.6 23 -5 47 47 NNW 7 11 30.25 1024 10 16 0.00 0.00
8:53 am 08:53 Mostly Cloudy 44 6.7 24 -4.4 45 45 NW 5 7 30.24 1024 10 16 0.00 0.00
9:53 am 09:53 Sunny 46 7.8 29 -1.7 51 51 WNW 5 7 30.22 1023 10 16 0.00 0.00
10:53 am 10:53 Sunny 48 8.9 31 -0.6 52 52 NW 6 9 30.22 1023 10 16 0.00 0.00
11:53 am 11:53 Sunny 46 7.8 32 0 58 58 undefined N/A 30.20 1023 10 16 0.00 0.00
12:53 pm 12:53 Sunny 48 8.9 29 -1.7 48 48 WNW 8 13 30.17 1022 10 16 0.00 0.00
1:53 pm 13:53 Sunny 48 8.9 29 -1.7 48 48 NW 10 17 30.14 1021 10 16 0.00 0.00
2:53 pm 14:53 Sunny 48 8.9 29 -1.7 48 48 NW 7 11 30.13 1020 10 16 0.00 0.00
3:53 pm 15:53 Sunny 48 8.9 30 -1.1 50 50 W 9 15 30.13 1020 10 16 0.00 0.00
4:53 pm 16:53 Sunny 48 8.9 30 -1.1 50 50 WNW 7 11 30.13 1020 10 16 0.00 0.00
5:53 pm 17:53 Sunny 47 8.3 30 -1.1 52 52 W 7 11 30.14 1021 10 16 0.00 0.00
6:53 pm 18:53 Clear 44 6.7 30 -1.1 58 58 W 5 7 30.15 1021 10 16 0.00 0.00
7:53 pm 19:53 Clear 42 5.6 30 -1.1 62 62 WNW 5 7 30.15 1021 10 16 0.00 0.00
8:53 pm 20:53 Clear 41 5 30 -1.1 65 65 W 3 6 30.16 1021 10 16 0.00 0.00
9:53 pm 21:53 Clear 41 5 31 -0.6 67 67 W 5 7 30.16 1021 10 16 0.00 0.00
10:53 pm 22:53 Clear 41 5 29 -1.7 62 62 WNW 8 13 30.16 1022 10 16 0.00 0.00
11:53 pm 23:53 Clear 41 5 26 -3.3 55 55 NW 5 7 30.16 1021 10 16 0.00 0.00

Powered by AerisWeather